Location: Newark
(43.0658°N, 122.2322°W)
Time: 00:42:20
(UTC+00:00)

X-37B - Visible Passes

Search period start: 21 September 2020 00:00
Search period end: 01 October 2020 00:00
Orbit: 386 x 387 km, 45.0° (Epoch: 18 September)

Date Brightness Start Highest point End Pass type
(mag) Time Alt. Az. Time Alt. Az. Time Alt. Az.
21 Sep 3.5 11:23:27 17° E 11:23:27 17° E 11:24:21 10° E visible
21 Sep 0.6 12:55:45 19° W 12:57:54 66° SSW 13:01:03 10° ESE visible
22 Sep 1.4 12:00:04 50° E 12:00:04 50° E 12:02:31 10° ESE visible
23 Sep 1.1 12:36:48 37° SW 12:37:16 40° SSW 12:40:17 10° SE visible
24 Sep 3.4 11:41:23 14° ESE 11:41:23 14° ESE 11:41:55 10° ESE visible
24 Sep 2.6 13:13:41 12° WSW 13:14:58 14° SW 13:16:47 10° S visible
25 Sep 2.9 12:18:25 15° SSE 12:18:25 15° SSE 12:19:15 10° SSE visible
